Home > Weather > Cayenne > Past weeks

Flag for French Guiana Weather for the Past 2 Weeks in Cayenne, French Guiana

Now
79 °F

Mostly cloudy.


Feels Like: 82 °F
Forecast: 78 / 83 °F
Wind: 6 mph from East

Location: Cayenne / Rochambeau

Current Time: Feb 8, 2016 at 10:45:42 PM

Latest Report: Feb 8, 2016 at 10:00 PM


Visibility: N/A

Pressure: 29.95 "Hg

Humidity: 89%

Dew point: 75 °F

Location of CayenneLocation

Historic Weather in Cayenne — Graph

°F

Cayenne Temperature Yesterday

Maximum temperature yesterday: 84 °F (at 12:00 PM)
Minimum temperature yesterday: 75 °F (at 8:00 AM)
Average temperature yesterday: 80 °F

High & Low Weather Summary for the Past Weeks

 TemperatureHumidityPressure
High86 °F (Jan 25, 2:00 PM)100% (Jan 29, 11:30 PM)30.01 "Hg (Jan 29, 11:30 PM)
Low70 °F (Jan 30, 6:00 AM)62% (Jan 25, 2:00 PM)29.80 "Hg (Feb 3, 3:30 PM)
Average80 °F83%29.91 "Hg
* Reported Jan 24 9:00 PM — Feb 8 9:00 PM, Cayenne, Weather by CustomWeather, © 2016

Note: Actual official high and low records may vary slightly from our data, if they occured in-between our weather recording intervals... More about our weather records

Advertising

Cayenne Weather History for the Previous 24 Hours

 ConditionsComfort  
Time TempWeatherWind HumidityBarometerVisibility
9:00 PM
Mon, Feb 8
79 °FPartly cloudy.9 mph89%29.92 "HgN/A
8:30 PM79 °FPartly cloudy.7 mph89%29.92 "HgN/A
8:00 PM79 °FMostly cloudy.6 mph89%29.92 "HgN/A
7:30 PM79 °FPartly cloudy.9 mph89%29.89 "HgN/A
7:00 PM79 °FPartly cloudy.7 mph94%29.89 "HgN/A
6:30 PM79 °FPartly sunny.7 mph94%29.89 "HgN/A
6:00 PM79 °FMostly cloudy.6 mph94%29.89 "HgN/A
5:30 PM81 °FBroken clouds.7 mph89%29.89 "HgN/A
5:00 PM79 °FMore clouds than sun.8 mph94%29.89 "HgN/A
4:30 PM81 °FPartly sunny.8 mph89%29.89 "HgN/A
4:00 PM81 °FBroken clouds.12 mph84%29.89 "HgN/A
3:30 PM81 °FOvercast.9 mph84%29.89 "HgN/A
3:00 PM81 °FWarm.8 mph84%29.92 "HgN/A
2:30 PM81 °FWarm.9 mph84%29.92 "HgN/A
2:00 PM81 °FWarm.7 mph84%29.95 "HgN/A
1:30 PM81 °FPartly sunny.10 mph84%29.95 "HgN/A
1:00 PM81 °FSunny.9 mph84%29.98 "Hg10 mi
12:30 PM81 °FMore clouds than sun.10 mph84%29.98 "HgN/A
12:00 PM81 °FPartly sunny.6 mph89%29.98 "HgN/A
11:30 AM79 °FLight rain. Broken clouds.8 mph94%30.01 "HgN/A
11:00 AM79 °FPartly sunny.5 mph94%30.01 "HgN/A
10:30 AM79 °FLight rain. Passing clouds.3 mph89%30.01 "HgN/A
10:00 AM77 °FLight rain. Broken clouds.2 mph94%30.01 "HgN/A
9:30 AM77 °FLight rain. More clouds than sun.9 mph94%30.01 "HgN/A
9:00 AM75 °FBroken clouds.9 mph100%29.98 "HgN/A
8:30 AM77 °FRain. Cloudy.13 mph94%29.98 "HgN/A
8:00 AM77 °FLight rain. Partly sunny.9 mph94%29.95 "Hg5 mi
7:30 AM77 °FRain. Mostly cloudy.8 mph94%29.95 "HgN/A
7:00 AM77 °FLight rain. Cloudy.7 mph94%29.92 "HgN/A
6:30 AM77 °FLight rain. Overcast.10 mph94%29.92 "HgN/A
6:00 AM77 °FLight rain. Mostly cloudy.6 mph94%29.92 "HgN/A
5:30 AM77 °FPassing clouds.7 mph94%29.89 "HgN/A
5:00 AM77 °FRain. Fog.10 mph94%29.89 "Hg3 mi
4:30 AM77 °FMostly cloudy.3 mph94%29.89 "HgN/A
4:00 AM77 °FPartly cloudy.2 mph94%29.89 "HgN/A
3:30 AM77 °FOvercast.5 mph94%29.89 "HgN/A
3:00 AM77 °FMostly cloudy.10 mph89%29.89 "HgN/A
2:30 AM77 °FPassing clouds.No wind94%29.89 "HgN/A
2:00 AM77 °FPassing clouds.3 mph94%29.92 "HgN/A
1:30 AM77 °FPassing clouds.5 mph94%29.92 "HgN/A
1:00 AM77 °FPartly cloudy.6 mph94%29.92 "HgN/A
12:30 AM77 °FPassing clouds.8 mph94%29.95 "HgN/A
12:00 AM77 °FLight rain. Mostly cloudy.10 mph94%29.95 "Hg4 mi
11:30 PM
Sun, Feb 7
77 °FPartly cloudy.3 mph94%29.95 "HgN/A
11:00 PM77 °FLight rain. Partly cloudy.6 mph94%29.95 "Hg6 mi
10:00 PM77 °FLow clouds.2 mph94%29.95 "HgN/A
Weather by CustomWeather, © 2016

See weather overviewHow to use our weather pages